This is the latest recevied weather packets stored in our database for station/object W7PLC. If no packets are shown the sender has not sent any weather packets the latest 10 day(s).
| Time | Temp. | Humidity | Pressure | Rain* | Wind** | Luminosity | Snow |
|---|---|---|---|---|---|---|---|
| 1777767471 | 26.11° C | 48% | 1010.8 hPa | 0 mm | - | 274 W/m² | - |
| 1777767168 | 26.11° C | 47% | 1010.9 hPa | 0 mm | - | 326 W/m² | - |
| 1777766865 | 26.11° C | 47% | 1010.9 hPa | 0 mm | - | 326 W/m² | - |
| 1777766562 | 25° C | 48% | 1010.9 hPa | 0 mm | - | 326 W/m² | - |
| 1777766259 | 25° C | 50% | 1011.1 hPa | 0 mm | - | 331 W/m² | - |
| 1777765957 | 26.11° C | 49% | 1010.9 hPa | 0 mm | - | 351 W/m² | - |
| 1777765653 | 25.56° C | 50% | 1011.2 hPa | 0 mm | - | 397 W/m² | - |
| 1777765350 | 25.56° C | 50% | 1011.4 hPa | 0 mm | - | 444 W/m² | - |
| 1777765046 | 24.44° C | 51% | 1011.5 hPa | 0 mm | - | 468 W/m² | - |
| 1777764744 | 25° C | 51% | 1011.5 hPa | 0 mm | - | 446 W/m² | - |
| 1777764439 | 25° C | 51% | 1011.7 hPa | 0 mm | - | 341 W/m² | - |
| 1777764136 | 24.44° C | 52% | 1011.6 hPa | 0 mm | - | 346 W/m² | - |
| 1777763833 | 25° C | 50% | 1011.6 hPa | 0 mm | - | 356 W/m² | - |
| 1777763531 | 25.56° C | 50% | 1011.7 hPa | 0 mm | - | 516 W/m² | - |
| 1777763230 | 25° C | 52% | 1011.9 hPa | 0 mm | - | 526 W/m² | - |
| 1777762927 | 25.56° C | 50% | 1011.8 hPa | 0 mm | - | 497 W/m² | - |
| 1777762622 | 26.67° C | 48% | 1012.3 hPa | 0 mm | - | 509 W/m² | - |
| 1777762320 | 26.67° C | 47% | 1012.2 hPa | 0 mm | - | 573 W/m² | - |
| 1777762016 | 26.67° C | 48% | 1012.2 hPa | 0 mm | - | 548 W/m² | - |
| 1777761713 | 26.11° C | 48% | 1012.3 hPa | 0 mm | - | 641 W/m² | - |
| 1777761411 | 26.11° C | 48% | 1012.2 hPa | 0 mm | - | 658 W/m² | - |
| 1777761109 | 26.11° C | 48% | 1012.3 hPa | 0 mm | - | 634 W/m² | - |
| 1777760806 | 26.11° C | 49% | 1012.5 hPa | 0 mm | - | 663 W/m² | - |
| 1777760503 | 25.56° C | 50% | 1012.4 hPa | 0 mm | - | 674 W/m² | - |
| 1777760198 | 25° C | 51% | 1012.6 hPa | 0 mm | - | 751 W/m² | - |
* Rain latest hour (hover to see other rain measurements)
** Current wind speed in m/s (hover to see current wind gust speed)